User: anonymous   Login
Location: Unspecified
(0.0000°N, 0.0000°E)
Time: 16:27:37
(UTC+02:00)
Language:

Cosmos 1733 Rocket - Orbit

View from above orbital plane
View from above orbital plane
View from above satellite
View from above satellite

Ground track
Ground track

The orbit data is extracted from the following two-line orbital elements,

1 16612U 86018B   15090.21113738  .00000597  00000-0  68960-4 0  9994
2 16612 082.5185 335.3155 0016554 305.9247 171.4631 14.83867793471475
Epoch (UTC): 31 March 2015 05:04:02
Eccentricity: 0.0016554
inclination: 82.5185°
perigee height: 605 km
apogee height: 629 km
right ascension of ascending node: 335.3155°
argument of perigee: 305.9247°
revolutions per day: 14.83867793
mean anomaly at epoch: 171.4631°
orbit number at epoch: 47147

The dashed part of the orbit path shows where the satellite is in the earth's shadow,  

DLR